Linden, NJ

4:30 PM EST on February 20, 2017 (GMT -0500)
Linden

Weather History for KLDJ - February, 2013

Change the Weather History Date:

Friday, February 15, 2013

  Actual Average (KEWR) Record (KEWR)
Temperature  
Mean Temperature 46 °F -  
Max Temperature 57 °F 42 °F 76 °F (1949)
Min Temperature 34 °F 26 °F -7 °F (1943)
Degree Days  
Heating Degree Days 20    
Moisture  
Dew Point 32 °F    
Average Humidity 62    
Maximum Humidity 89    
Minimum Humidity 37    
Precipitation  
Precipitation 0.00 in - - ()
Sea Level Pressure  
Sea Level Pressure 29.97 in    
Wind  
Wind Speed 3 mph (West)    
Max Wind Speed 14 mph    
Max Gust Speed 18 mph    
Visibility 9 miles    
Events      
Averages and records for this station are not official NWS values.
T = Trace of Precipitation, MM = Missing Value Source: NWS Daily Summary

Daily Weather History Graph

Daily Weather History Graph

Search for Another Location

Airport or City:

Trip Planner

Search our weather history database for the weather conditions in past years. The results will help you decide how hot, cold, wet, or windy it might be!

Date:

Astronomy

Feb. 15, 2013 Rise Set
Actual Time 6:50 AM EST 5:32 PM EST
Civil Twilight 6:22 AM EST 6:00 PM EST
Nautical Twilight 5:50 AM EST 6:32 PM EST
Astronomical Twilight 5:18 AM EST 7:04 PM EST
Moon 9:23 AM EST (2/15) 11:32 PM EST (2/15)
Length of Visible Light 11h 37m
Length of Day
10h 41m
Waxing Crescent, 30% of the Moon is Illuminated
Feb 15
Waxing Crescent
Feb 17
First Quarter
Feb 25
Full
Mar 4
Last Quarter
Mar 11
New

Hourly Weather History & Observations

Time (EST) Temp. Windchill Dew Point Humidity Pressure Visibility Wind Dir Wind Speed Gust Speed Precip Events Conditions
12:15 AM 37.6 °F - 30.2 °F 75% 30.01 in 10.0 mi Calm Calm - N/A   Clear
12:35 AM 37.0 °F 34.5 °F 30.6 °F 77% 30.01 in 10.0 mi South 3.5 mph - N/A   Clear
12:55 AM 36.7 °F - 31.1 °F 80% 30.01 in 10.0 mi Calm Calm - N/A   Clear
1:35 AM 36.5 °F - 31.5 °F 82% 30.01 in 7.0 mi Calm Calm - N/A   Scattered Clouds
1:55 AM 36.5 °F - 31.6 °F 83% 30.01 in 7.0 mi Calm Calm - N/A   Mostly Cloudy
2:15 AM 36.5 °F 33.9 °F 32.0 °F 84% 30.00 in 7.0 mi WSW 3.5 mph - N/A   Overcast
2:35 AM 37.0 °F 34.5 °F 32.0 °F 82% 30.00 in 7.0 mi WSW 3.5 mph - N/A   Overcast
2:55 AM 37.0 °F - 32.0 °F 82% 29.99 in 7.0 mi Calm Calm - N/A   Overcast
3:15 AM 36.9 °F 34.3 °F 32.0 °F 83% 30.01 in 7.0 mi WSW 3.5 mph - N/A   Scattered Clouds
3:35 AM 36.1 °F - 31.8 °F 84% 30.00 in 7.0 mi Calm Calm - N/A   Clear
3:55 AM 36.5 °F 33.9 °F 32.0 °F 84% 30.00 in 7.0 mi WSW 3.5 mph - N/A   Clear
4:15 AM 36.5 °F 33.9 °F 32.0 °F 84% 30.00 in 7.0 mi WSW 3.5 mph - N/A   Clear
4:35 AM 36.7 °F - 31.8 °F 83% 30.01 in 7.0 mi Calm Calm - N/A   Clear
4:55 AM 36.5 °F - 32.0 °F 84% 30.01 in 7.0 mi Calm Calm - N/A   Clear
5:15 AM 35.8 °F - 31.8 °F 86% 30.00 in 7.0 mi Calm Calm - N/A   Clear
5:35 AM 35.4 °F - 31.6 °F 86% 30.00 in 7.0 mi Calm Calm - N/A   Clear
5:55 AM 35.1 °F - 31.8 °F 88% 30.00 in 7.0 mi Calm Calm - N/A   Clear
6:15 AM 34.9 °F - 31.5 °F 87% 29.99 in 7.0 mi Calm Calm - N/A   Clear
6:35 AM 35.2 °F 32.4 °F 31.8 °F 87% 30.00 in 7.0 mi WSW 3.5 mph - N/A   Clear
6:55 AM 35.1 °F - 31.6 °F 87% 30.00 in 7.0 mi Calm Calm - N/A   Clear
7:15 AM 34.7 °F - 31.6 °F 89% 30.01 in 4.0 mi Calm Calm - N/A   Clear
7:35 AM 34.9 °F - 31.8 °F 89% 30.01 in 4.0 mi Calm Calm - N/A   Clear
7:55 AM 36.0 °F 33.3 °F 32.0 °F 86% 30.02 in 5.0 mi WSW 3.5 mph - N/A   Clear
8:15 AM 37.2 °F 34.7 °F 32.2 °F 82% 30.02 in 5.0 mi WSW 3.5 mph - N/A   Haze
8:35 AM 38.3 °F 34.8 °F 32.5 °F 80% 30.02 in 5.0 mi WSW 4.6 mph - N/A   Haze
9:15 AM 40.6 °F 38.6 °F 33.3 °F 75% 30.01 in 7.0 mi SW 3.5 mph - N/A   Clear
9:35 AM 41.5 °F 37.8 °F 33.4 °F 73% 30.02 in 7.0 mi WSW 5.8 mph - N/A   Clear
10:15 AM 43.9 °F 40.5 °F 33.6 °F 67% 30.02 in 10.0 mi WSW 5.8 mph - N/A   Clear
10:35 AM 45.0 °F 41.2 °F 33.6 °F 64% 30.02 in 10.0 mi West 6.9 mph - N/A   Clear
10:55 AM 46.0 °F 42.5 °F 33.3 °F 61% 30.02 in 10.0 mi West 6.9 mph - N/A   Clear
11:15 AM 46.8 °F - 33.3 °F 59% 30.02 in 10.0 mi West 6.9 mph - N/A   Clear
11:35 AM 48.2 °F - 33.6 °F 57% 30.01 in 10.0 mi West 10.4 mph - N/A   Clear
11:55 AM 49.1 °F - 32.5 °F 53% 30.00 in 10.0 mi West 6.9 mph - N/A   Clear
12:15 PM 50.9 °F - 32.7 °F 50% 29.99 in 10.0 mi WSW 5.8 mph - N/A   Clear
12:35 PM 52.7 °F - 33.1 °F 47% 29.98 in 10.0 mi West 8.1 mph - N/A   Clear
12:55 PM 53.1 °F - 32.9 °F 46% 29.97 in 10.0 mi WSW 5.8 mph - N/A   Clear
1:15 PM 54.0 °F - 33.1 °F 45% 29.96 in 10.0 mi SW 6.9 mph - N/A   Clear
1:35 PM 55.8 °F - 32.2 °F 41% 29.95 in 10.0 mi WSW 5.8 mph - N/A   Clear
1:55 PM 56.3 °F - 31.6 °F 39% 29.94 in 10.0 mi WSW 10.4 mph - N/A   Clear
2:15 PM 56.8 °F - 30.6 °F 37% 29.93 in 10.0 mi WSW 10.4 mph 18.4 mph N/A   Clear
2:35 PM 57.7 °F - 31.5 °F 37% 29.93 in 10.0 mi West 11.5 mph 16.1 mph N/A   Clear
2:55 PM 57.2 °F - 30.9 °F 37% 29.93 in 10.0 mi WSW 8.1 mph - N/A   Scattered Clouds
3:15 PM 57.6 °F - 31.6 °F 37% 29.92 in 10.0 mi SW 4.6 mph - N/A   Scattered Clouds
3:35 PM 56.7 °F - 30.9 °F 38% 29.92 in 10.0 mi WSW 9.2 mph - N/A   Clear
3:55 PM 56.8 °F - 31.6 °F 38% 29.92 in 10.0 mi West 9.2 mph - N/A   Scattered Clouds
4:15 PM 56.7 °F - 31.6 °F 39% 29.92 in 10.0 mi WSW 6.9 mph - N/A   Clear
4:35 PM 56.3 °F - 31.3 °F 39% 29.92 in 10.0 mi West 10.4 mph - N/A   Clear
4:55 PM 55.0 °F - 31.5 °F 41% 29.92 in 10.0 mi WSW 5.8 mph 9.2 mph N/A   Scattered Clouds
5:15 PM 55.4 °F - 31.1 °F 40% 29.92 in 10.0 mi West 5.8 mph - N/A   Mostly Cloudy
5:35 PM 54.0 °F - 32.4 °F 44% 29.92 in 10.0 mi WNW 5.8 mph - N/A   Overcast
5:55 PM 53.1 °F - 31.8 °F 44% 29.92 in 10.0 mi WNW 5.8 mph - N/A   Overcast
6:15 PM 52.3 °F - 31.3 °F 45% 29.92 in 10.0 mi WNW 3.5 mph - N/A   Mostly Cloudy
6:35 PM 52.2 °F - 30.2 °F 43% 29.92 in 10.0 mi NNW 3.5 mph - N/A   Mostly Cloudy
6:55 PM 51.6 °F - 30.2 °F 44% 29.91 in 10.0 mi NNW 3.5 mph - N/A   Mostly Cloudy
7:15 PM 50.2 °F - 30.7 °F 47% 29.92 in 10.0 mi Calm Calm - N/A   Mostly Cloudy
7:35 PM 50.4 °F - 30.2 °F 46% 29.92 in 10.0 mi NW 3.5 mph - N/A   Mostly Cloudy
7:55 PM 50.0 °F - 29.3 °F 45% 29.92 in 10.0 mi Calm Calm - N/A   Mostly Cloudy
8:15 PM 48.7 °F - 34.3 °F 58% 29.93 in 10.0 mi South 3.5 mph - N/A   Overcast
8:35 PM 48.7 °F - 33.1 °F 55% 29.93 in 10.0 mi Calm Calm - N/A   Overcast
8:55 PM 48.7 °F - 32.9 °F 54% 29.93 in 10.0 mi Calm Calm - N/A   Overcast
9:15 PM 48.6 °F - 32.4 °F 54% 29.93 in 10.0 mi NW 3.5 mph - N/A   Overcast
9:35 PM 48.4 °F - 30.4 °F 50% 29.93 in 10.0 mi WNW 6.9 mph - N/A   Overcast
9:55 PM 48.2 °F - 29.7 °F 49% 29.94 in 10.0 mi WNW 5.8 mph - N/A   Overcast
10:15 PM 47.5 °F - 29.5 °F 50% 29.95 in 10.0 mi WNW 5.8 mph - N/A   Overcast
10:35 PM 47.3 °F - 29.3 °F 50% 29.95 in 10.0 mi WNW 6.9 mph - N/A   Overcast
10:55 PM 47.3 °F - 28.4 °F 48% 29.96 in 10.0 mi WNW 8.1 mph - N/A   Overcast
11:15 PM 45.5 °F 39.2 °F 30.9 °F 57% 29.96 in 10.0 mi NW 13.8 mph 17.3 mph N/A   Overcast
11:35 PM 43.9 °F 37.9 °F 32.2 °F 63% 29.96 in 10.0 mi NW 11.5 mph - N/A   Overcast
11:55 PM 43.0 °F 36.0 °F 33.1 °F 68% 29.97 in 10.0 mi NW 13.8 mph - N/A   Overcast